Regional Weather Roundup
Issued by NWS

Home | Current Version | Previous Version | Graphics & Text | Print | Product List | Glossary On
Versions: 1 2 3 4 5 6 7 8 9 10 11 12 13 14 15 16 17 18 19 20 21 22 23 24 25 26 27 28 29 30 31 32 33 34 35 36 37 38 39 40 41 42 43 44 45 46 47 48 49 50
000
ASUS44 KMEG 160600
RWRTN
TENNESSEE HOURLY STATE WEATHER ROUNDUP
NATIONAL WEATHER SERVICE MEMPHIS TN
100 AM CDT TUE SEP 16 2014

TNZ002-004-019-021-049-052-054-088>092-160700-
WEST TENNESSEE

CITY           SKY/WX    TMP DP  RH WIND       PRES   REMARKS
MEMPHIS INTL   MOCLDY    72  65  78 CALM      30.10F
NWS MEMPHIS      N/A     69 N/A N/A MISG        N/A
JACKSON        CLEAR     65  63  93 CALM      30.12R FOG
DYERSBURG      PTCLDY    64  54  68 CALM      30.12S
PARIS          PTCLDY    61  57  88 CALM      30.11F
LEXINGTON      MOCLDY    64  63  94 CALM      30.11S VSB 1/2
SAVANNAH       CLEAR     66  66 100 CALM      30.12S
$$

TNZ008-025-027-028-033-062-065-066-160700-
NORTH MIDDLE TENNESSEE

CITY           SKY/WX    TMP DP  RH WIND       PRES   REMARKS
NASHVILLE      MOCLDY    63  62  97 S5        30.11F
CLARKSVILLE    MOCLDY    65  62  90 CALM      30.10S
COOKEVILLE     CLOUDY    66  64  94 CALM      30.13S
CROSSVILLE     CLOUDY    68  64  87 CALM      30.16F
$$

TNZ061-075-076-078-094-096-097-160700-
SOUTH MIDDLE TENNESSEE

CITY           SKY/WX    TMP DP  RH WIND       PRES   REMARKS
FAYETTEVILLE   CLEAR     66  66 100 N3G13     30.12F
WINCHESTER     CLEAR     68  66  94 CALM      30.13F
COLUMBIA       CLEAR     66  66 100 CALM      30.11F
SHELBYVILLE    PTCLDY    66  64  94 CALM      30.13S
$$

TNZ017-018-042-046-047-160700-
NORTHEAST TENNESSEE

CITY           SKY/WX    TMP DP  RH WIND       PRES   REMARKS
TRI CITIES     PTCLDY    62  60  93 CALM      30.13F FOG
ELIZABETHTON   CLEAR     59  59 100 CALM      30.15S
$$

TNZ012-013-036-069-073-074-160700-
CENTRAL EAST TENNESSEE

CITY           SKY/WX    TMP DP  RH WIND       PRES   REMARKS
KNOXVILLE      MOCLDY    69  68  96 SW6       30.11F
OAK RIDGE      MOCLDY    67  66  97 CALM      30.13F
GATLINBURG     CLEAR     64  64 100 CALM      30.11F
$$

TNZ083-085-099-160700-
SOUTHEAST TENNESSEE

CITY           SKY/WX    TMP DP  RH WIND       PRES   REMARKS
CHATTANOOGA    CLOUDY    72  70  93 CALM      30.13F FOG
$$

SKY/WX REPORTED AS FAIR MEANS FEW OR NO CLOUDS BELOW
12 THOUSAND FEET.




USA.gov is the U.S. government's official web portal to all federal, state and local government web resources and services.